Regional Weather Roundup
Issued by NWS Green Bay, WI

Home | Current Version | Previous Version | Text Only | Print | Product List | Glossary On
Versions: 1 2 3 4 5 6 7 8 9 10 11 12 13 14 15 16 17 18 19 20 21 22 23 24 25 26 27 28 29 30 31 32 33 34 35 36 37 38 39 40 41 42 43 44 45 46 47 48 49 50
000
ASUS43 KGRB 200059
RWRGRB

NORTH-CENTRAL AND NORTHEAST WISCONSIN REGIONAL WEATHER ROUNDUP
NATIONAL WEATHER SERVICE GREEN BAY WI
700 PM CST FRI DEC 19 2014

WIZ005-009-010>012-018-019-200200-
NORTH CENTRAL WISCONSIN

CITY           SKY/WX    TMP DP  RH WIND       PRES   REMARKS
IRONWOOD       CLOUDY    23  19  86 S3        30.19S
MANITOWISH WTR NOT AVBL
ARBOR VITAE    NOT AVBL
EAGLE RIVER    NOT AVBL
LAND O LAKES   NOT AVBL
RHINELANDER    CLOUDY    21  16  81 S5        30.22R
PHILLIPS       NOT AVBL
ANTIGO         NOT AVBL
TOMAHAWK       NOT AVBL
MERRILL        NOT AVBL
$$

WIZ013-073-200200-
NORTHEAST WISCONSIN

CITY           SKY/WX    TMP DP  RH WIND       PRES   REMARKS
IRON MOUNTAIN  FOG       10   7  87 CALM      30.24S VSB 1/4
MARINETTE      CLEAR     21  16  79 CALM      30.29S
$$

WIZ017-030-035>037-045-200200-
CENTRAL WISCONSIN

CITY           SKY/WX    TMP DP  RH WIND       PRES   REMARKS
MEDFORD        NOT AVBL
WAUSAU         CLOUDY    23  19  85 SW3       30.24S
MOSINEE        CLOUDY    25  21  86 S6        30.26S
MARSHFIELD     CLOUDY    24  20  84 S6        30.24F
WISC RAPIDS    CLOUDY    24  19  81 S3        30.28F
STEVENS POINT  NOT AVBL
WAUPACA        NOT AVBL
SHAWANO        NOT AVBL
CLINTONVILLE   NOT AVBL
$$

WIZ038-039-048-051-200200-
FOX VALLEY

CITY           SKY/WX    TMP DP  RH WIND       PRES   REMARKS
NWS GREEN BAY  MOCLDY    27  21  78 CALM      30.30S
APPLETON       CLOUDY    27  19  74 W6        30.29S
OSHKOSH        CLOUDY    27  18  69 CALM      30.29F
FOND DU LAC    CLOUDY    27  18  69 SW5       30.29F
$$

WIZ022-050-052-200200-
EAST CENTRAL WISCONSIN

CITY           SKY/WX    TMP DP  RH WIND       PRES   REMARKS
STURGEON BAY   CLEAR     21  18  86 CALM      30.31S
MANITOWOC      NOT AVBL
SHEBOYGAN      CLOUDY    29  21  72 CALM      30.30S
$$

LMZ563-521-522-541>543-200200-
LAKESHORE

STATION/POSITION TIME  TEMP    WIND        PRES    VSBY  WAVE
                       AIR SEA DIR/SP/G                  HT/PER
                 (UTC) (F)     (DEG/KT/KT) (MB)    (MI)  (FT/S)
SHEBOYGAN LKSHOR 0000   30 34  290/  5/  6 1027.4R
KEWAUNEE LKSHORE 0000   27      CALM  /  2 1025.4R
NORTHPORT PIER   0000   25     180/  2/  2 1026.1R
SISTER BAY LKSHO 0000             CALM       N/A
CHAMBERS ISLAND  0000   20      CALM  /  1 1026.1S
MENOMINEE LKSHOR 0000   26     210/  4/  5 1026.6R
$$


USA.gov is the U.S. government's official web portal to all federal, state and local government web resources and services.